TimeCST,TemperatureF,Dew PointF,Humidity,Sea Level PressureIn,VisibilityMPH,Wind Direction,Wind SpeedMPH,Gust SpeedMPH,PrecipitationIn,Events,Conditions,WindDirDegrees,DateUTC
12:36 AM,62.6,51.8,68,29.68,10.0,ENE,4.6,-,N/A,,Overcast,60,2012-12-25 06:36:00
12:53 AM,62.1,52.0,70,29.67,10.0,Calm,Calm,-,N/A,,Overcast,0,2012-12-25 06:53:00
1:42 AM,62.6,53.6,72,29.69,10.0,Calm,Calm,-,N/A,,Overcast,0,2012-12-25 07:42:00
1:53 AM,62.1,53.1,72,29.68,10.0,Calm,Calm,-,N/A,,Overcast,0,2012-12-25 07:53:00
2:26 AM,62.6,53.6,72,29.68,10.0,East,3.5,-,N/A,,Overcast,80,2012-12-25 08:26:00
2:53 AM,63.0,53.1,70,29.64,10.0,East,3.5,-,N/A,,Overcast,100,2012-12-25 08:53:00
3:53 AM,62.1,55.0,78,29.60,10.0,SE,5.8,-,N/A,,Overcast,140,2012-12-25 09:53:00
4:53 AM,66.0,64.0,93,29.58,9.0,SSE,9.2,17.3,N/A,,Overcast,160,2012-12-25 10:53:00
5:53 AM,66.0,63.0,90,29.58,9.0,South,9.2,-,N/A,,Overcast,190,2012-12-25 11:53:00
6:53 AM,66.0,63.0,90,29.61,9.0,SW,12.7,19.6,N/A,,Overcast,230,2012-12-25 12:53:00
7:11 AM,64.4,62.6,94,29.62,9.0,SW,11.5,-,N/A,,Overcast,220,2012-12-25 13:11:00
7:53 AM,64.0,61.0,90,29.64,7.0,WSW,11.5,-,N/A,,Partly Cloudy,240,2012-12-25 13:53:00
8:53 AM,64.9,57.9,78,29.69,9.0,West,16.1,23.0,N/A,,Clear,270,2012-12-25 14:53:00
9:53 AM,70.0,27.0,20,29.73,10.0,WNW,19.6,40.3,N/A,,Clear,290,2012-12-25 15:53:00
10:53 AM,70.0,18.0,14,29.76,10.0,NW,26.5,39.1,N/A,,Clear,310,2012-12-25 16:53:00
11:53 AM,70.0,21.0,16,29.77,10.0,WNW,20.7,35.7,N/A,,Clear,300,2012-12-25 17:53:00
12:53 PM,70.0,19.0,14,29.76,10.0,NW,20.7,35.7,N/A,,Clear,310,2012-12-25 18:53:00
1:53 PM,70.0,19.9,15,29.77,10.0,NW,18.4,34.5,N/A,,Clear,310,2012-12-25 19:53:00
2:53 PM,69.1,26.1,20,29.79,10.0,NW,18.4,28.8,N/A,,Clear,320,2012-12-25 20:53:00
3:53 PM,64.0,24.1,22,29.83,10.0,NW,13.8,33.4,N/A,,Clear,310,2012-12-25 21:53:00
4:53 PM,55.9,24.1,29,29.88,10.0,NW,16.1,35.7,N/A,,Clear,320,2012-12-25 22:53:00
5:53 PM,46.9,24.1,41,29.97,10.0,North,13.8,26.5,N/A,,Clear,360,2012-12-25 23:53:00
6:53 PM,44.1,21.9,42,30.02,10.0,NNW,12.7,26.5,N/A,,Clear,330,2012-12-26 00:53:00
7:53 PM,43.0,21.0,42,30.06,10.0,NNW,18.4,38.0,N/A,,Clear,330,2012-12-26 01:53:00
8:53 PM,39.9,21.0,47,30.09,10.0,North,15.0,28.8,N/A,,Clear,350,2012-12-26 02:53:00
9:53 PM,37.9,18.0,45,30.12,9.0,North,16.1,27.6,0.00,Snow,Light Snow,350,2012-12-26 03:53:00
10:53 PM,37.0,19.0,48,30.13,9.0,NNW,19.6,26.5,0.00,Snow,Light Snow,340,2012-12-26 04:53:00
11:53 PM,37.0,19.0,48,30.15,10.0,NNW,15.0,23.0,0.00,,Clear,340,2012-12-26 05:53:00